Mt Hood
Skibowl Ski Area - Government Camp
Latest observation 09/03 18:00 PDT
| Time (PDT) | Temp °F 5010' | Temp °F 3660' | RH % 5010' | RH % 3660' | Min mph 5010' | Spd mph 5010' | Gust mph 5010' | Dir ° 5010' | Pcp1 in 3660' | PcpSum in 3660' | SnoHt in 5010' |
|---|---|---|---|---|---|---|---|---|---|---|---|
| 09/03 18:00 | – | 49 | – | 91 | – | – | – | – | 0.00 | 0.99 | – |
| 09/03 17:00 | – | 49 | – | 85 | – | – | – | – | 0.00 | 0.99 | – |
| 09/03 16:00 | – | 49 | – | 85 | – | – | – | – | 0.00 | 0.99 | – |
| 09/03 15:00 | – | 49 | – | 88 | – | – | – | – | 0.00 | 0.99 | – |
| 09/03 14:00 | – | 49 | – | 90 | – | – | – | – | 0.00 | 0.99 | – |
| 09/03 13:00 | – | 48 | – | 92 | – | – | – | – | 0.00 | 0.99 | – |
| 09/03 12:00 | – | 46 | – | 94 | – | – | – | – | 0.00 | 0.99 | – |
| 09/03 11:00 | – | 46 | – | 96 | – | – | – | – | 0.00 | 0.99 | – |
| 09/03 10:00 | – | 45 | – | 97 | – | – | – | – | 0.00 | 0.99 | – |
| 09/03 09:00 | – | 44 | – | 97 | – | – | – | – | 0.00 | 0.99 | – |
| 09/03 08:00 | – | 43 | – | 97 | – | – | – | – | 0.01 | 0.99 | – |
| 09/03 07:00 | – | 43 | – | 97 | – | – | – | – | 0.00 | 0.98 | – |
| 09/03 06:00 | – | 42 | – | 97 | – | – | – | – | 0.01 | 0.98 | – |
| 09/03 05:00 | – | 43 | – | 97 | – | – | – | – | 0.03 | 0.97 | – |
| 09/03 04:00 | – | 43 | – | 97 | – | – | – | – | 0.02 | 0.94 | – |
| 09/03 03:00 | – | 42 | – | 97 | – | – | – | – | 0.00 | 0.92 | – |
| 09/03 02:00 | – | 43 | – | 97 | – | – | – | – | 0.01 | 0.92 | – |
| 09/03 01:00 | – | 43 | – | 97 | – | – | – | – | 0.00 | 0.91 | – |
| 09/03 00:00 | – | 44 | – | 96 | – | – | – | – | 0.00 | 0.91 | – |
| 09/02 23:00 | – | 44 | – | 97 | – | – | – | – | 0.00 | 0.91 | – |
| 09/02 22:00 | – | 45 | – | 97 | – | – | – | – | 0.01 | 0.91 | – |
| 09/02 21:00 | – | 46 | – | 97 | – | – | – | – | 0.04 | 0.90 | – |
| 09/02 20:00 | – | 46 | – | 96 | – | – | – | – | 0.15 | 0.86 | – |
| 09/02 19:00 | – | 49 | – | 97 | – | – | – | – | 0.16 | 0.71 | – |
| 09/02 18:00 | – | 49 | – | 97 | – | – | – | – | 0.06 | 0.55 | – |
| 09/02 17:00 | – | 50 | – | 96 | – | – | – | – | 0.11 | 0.49 | – |
| 09/02 16:00 | – | 50 | – | 96 | – | – | – | – | 0.07 | 0.38 | – |
| 09/02 15:00 | – | 49 | – | 95 | – | – | – | – | 0.04 | 0.31 | – |
| 09/02 14:00 | – | 49 | – | 95 | – | – | – | – | 0.08 | 0.27 | – |
| 09/02 13:00 | – | 49 | – | 94 | – | – | – | – | 0.09 | 0.19 | – |
| 09/02 12:00 | – | 50 | – | 91 | – | – | – | – | 0.06 | 0.10 | – |
| 09/02 11:00 | – | 52 | – | 79 | – | – | – | – | 0.00 | 0.04 | – |
| 09/02 10:00 | – | 54 | – | 67 | – | – | – | – | 0.00 | 0.04 | – |
| 09/02 09:00 | – | 51 | – | 80 | – | – | – | – | 0.00 | 0.04 | – |
| 09/02 08:00 | – | 48 | – | 89 | – | – | – | – | 0.00 | 0.04 | – |
| 09/02 07:00 | – | 48 | – | 91 | – | – | – | – | 0.00 | 0.04 | – |
| 09/02 06:00 | – | 48 | – | 91 | – | – | – | – | 0.00 | 0.04 | – |
| 09/02 05:00 | – | 48 | – | 91 | – | – | – | – | 0.00 | 0.04 | – |
| 09/02 04:00 | – | 49 | – | 90 | – | – | – | – | 0.00 | 0.04 | – |
| 09/02 03:00 | – | 49 | – | 89 | – | – | – | – | 0.00 | 0.04 | – |
| 09/02 02:00 | – | 50 | – | 87 | – | – | – | – | 0.00 | 0.04 | – |
| 09/02 01:00 | – | 49 | – | 89 | – | – | – | – | 0.00 | 0.04 | – |
| 09/02 00:00 | – | 50 | – | 91 | – | – | – | – | 0.00 | 0.04 | – |
| 09/01 23:00 | – | 50 | – | 90 | – | – | – | – | 0.00 | 0.04 | – |
| 09/01 22:00 | – | 51 | – | 89 | – | – | – | – | 0.00 | 0.04 | – |
| 09/01 21:00 | – | 51 | – | 86 | – | – | – | – | 0.00 | 0.04 | – |
| 09/01 20:00 | – | 52 | – | 83 | – | – | – | – | 0.00 | 0.04 | – |
| 09/01 19:00 | – | 53 | – | 80 | – | – | – | – | 0.00 | 0.04 | – |
| 09/01 18:00 | – | 54 | – | 80 | – | – | – | – | 0.00 | 0.04 | – |
| 09/01 17:00 | – | 55 | – | 80 | – | – | – | – | 0.00 | 0.04 | – |
| 09/01 16:00 | – | 55 | – | 80 | – | – | – | – | 0.00 | 0.04 | – |
| 09/01 15:00 | – | 58 | – | 75 | – | – | – | – | 0.00 | 0.04 | – |
| 09/01 14:00 | – | 58 | – | 73 | – | – | – | – | 0.00 | 0.04 | – |
| 09/01 13:00 | – | 59 | – | 69 | – | – | – | – | 0.00 | 0.04 | – |
| 09/01 12:00 | – | 57 | – | 73 | – | – | – | – | 0.00 | 0.04 | – |
| 09/01 11:00 | – | 52 | – | 85 | – | – | – | – | 0.00 | 0.04 | – |
| 09/01 10:00 | – | 50 | – | 94 | – | – | – | – | 0.00 | 0.04 | – |
| 09/01 09:00 | – | 49 | – | 96 | – | – | – | – | 0.00 | 0.04 | – |
| 09/01 08:00 | – | 49 | – | 96 | – | – | – | – | 0.00 | 0.04 | – |
| 09/01 07:00 | – | 49 | – | 95 | – | – | – | – | 0.00 | 0.04 | – |
| 09/01 06:00 | – | 49 | – | 94 | – | – | – | – | 0.00 | 0.04 | – |
| 09/01 05:00 | – | 49 | – | 93 | – | – | – | – | 0.00 | 0.04 | – |
| 09/01 04:00 | – | 48 | – | 88 | – | – | – | – | 0.00 | 0.04 | – |
| 09/01 03:00 | – | 49 | – | 86 | – | – | – | – | 0.00 | 0.04 | – |
| 09/01 02:00 | – | 49 | – | 83 | – | – | – | – | 0.00 | 0.04 | – |
| 09/01 01:00 | – | 50 | – | 79 | – | – | – | – | 0.00 | 0.04 | – |
| 09/01 00:00 | – | 51 | – | 76 | – | – | – | – | 0.00 | 0.04 | – |
| 08/31 23:00 | – | 53 | – | 74 | – | – | – | – | 0.00 | 0.04 | – |
| 08/31 22:00 | – | 55 | – | 72 | – | – | – | – | 0.00 | 0.04 | – |
| 08/31 21:00 | – | 58 | – | 67 | – | – | – | – | 0.00 | 0.04 | – |
| 08/31 20:00 | – | 63 | – | 60 | – | – | – | – | 0.00 | 0.04 | – |
| 08/31 19:00 | – | 67 | – | 47 | – | – | – | – | 0.00 | 0.04 | – |
| 08/31 18:00 | – | 71 | – | 39 | – | – | – | – | 0.00 | 0.04 | – |
| 08/31 17:00 | – | 74 | – | 35 | – | – | – | – | 0.00 | 0.04 | – |
| 08/31 16:00 | – | 75 | – | 26 | – | – | – | – | 0.00 | 0.04 | – |
| 08/31 15:00 | – | 75 | – | 25 | – | – | – | – | 0.00 | 0.04 | – |
| 08/31 14:00 | – | 74 | – | 23 | – | – | – | – | 0.00 | 0.04 | – |
| 08/31 13:00 | – | 73 | – | 23 | – | – | – | – | 0.00 | 0.04 | – |
| 08/31 12:00 | – | 71 | – | 25 | – | – | – | – | 0.00 | 0.04 | – |
| 08/31 11:00 | – | 66 | – | 43 | – | – | – | – | 0.00 | 0.04 | – |
| 08/31 10:00 | – | 61 | – | 47 | – | – | – | – | 0.00 | 0.04 | – |
| 08/31 09:00 | – | 54 | – | 64 | – | – | – | – | 0.00 | 0.04 | – |
| 08/31 08:00 | – | 55 | – | 53 | – | – | – | – | 0.00 | 0.04 | – |
| 08/31 07:00 | – | 51 | – | 66 | – | – | – | – | 0.00 | 0.04 | – |
| 08/31 06:00 | – | 48 | – | 77 | – | – | – | – | 0.00 | 0.04 | – |
| 08/31 05:00 | – | 48 | – | 77 | – | – | – | – | 0.00 | 0.04 | – |
| 08/31 04:00 | – | 47 | – | 80 | – | – | – | – | 0.00 | 0.04 | – |
| 08/31 03:00 | – | 47 | – | 83 | – | – | – | – | 0.00 | 0.04 | – |
| 08/31 02:00 | – | 46 | – | 85 | – | – | – | – | 0.00 | 0.04 | – |
| 08/31 01:00 | – | 47 | – | 84 | – | – | – | – | 0.00 | 0.04 | – |
| 08/31 00:00 | – | 46 | – | 86 | – | – | – | – | 0.00 | 0.04 | – |
| 08/30 23:00 | – | 45 | – | 87 | – | – | – | – | 0.00 | 0.04 | – |
| 08/30 22:00 | – | 46 | – | 85 | – | – | – | – | 0.00 | 0.04 | – |
| 08/30 21:00 | – | 48 | – | 82 | – | – | – | – | 0.00 | 0.04 | – |
| 08/30 20:00 | – | 52 | – | 75 | – | – | – | – | 0.00 | 0.04 | – |
| 08/30 19:00 | – | 57 | – | 63 | – | – | – | – | 0.00 | 0.04 | – |
| 08/30 18:00 | – | 59 | – | 56 | – | – | – | – | 0.00 | 0.04 | – |
| 08/30 17:00 | – | 60 | – | 54 | – | – | – | – | 0.00 | 0.04 | – |
| 08/30 16:00 | – | 60 | – | 51 | – | – | – | – | 0.00 | 0.04 | – |
| 08/30 15:00 | – | 60 | – | 52 | – | – | – | – | 0.00 | 0.04 | – |
| 08/30 14:00 | – | 59 | – | 54 | – | – | – | – | 0.00 | 0.04 | – |
| 08/30 13:00 | – | 58 | – | 49 | – | – | – | – | 0.00 | 0.04 | – |
| 08/30 12:00 | – | 55 | – | 60 | – | – | – | – | 0.00 | 0.04 | – |
| 08/30 11:00 | – | 52 | – | 70 | – | – | – | – | 0.00 | 0.04 | – |
| 08/30 10:00 | – | 47 | – | 82 | – | – | – | – | 0.00 | 0.04 | – |
| 08/30 09:00 | – | 44 | – | 90 | – | – | – | – | 0.00 | 0.04 | – |
| 08/30 08:00 | – | 39 | – | 94 | – | – | – | – | 0.00 | 0.04 | – |
| 08/30 07:00 | – | 39 | – | 93 | – | – | – | – | 0.00 | 0.04 | – |
| 08/30 06:00 | – | 42 | – | 92 | – | – | – | – | 0.00 | 0.04 | – |
| 08/30 05:00 | – | 44 | – | 92 | – | – | – | – | 0.00 | 0.04 | – |
| 08/30 04:00 | – | 45 | – | 92 | – | – | – | – | 0.00 | 0.04 | – |
| 08/30 03:00 | – | 44 | – | 92 | – | – | – | – | 0.00 | 0.04 | – |
| 08/30 02:00 | – | 44 | – | 91 | – | – | – | – | 0.00 | 0.04 | – |
| 08/30 01:00 | – | 45 | – | 91 | – | – | – | – | 0.00 | 0.04 | – |
| 08/30 00:00 | – | 46 | – | 87 | – | – | – | – | 0.00 | 0.04 | – |
| 08/29 23:00 | – | 48 | – | 84 | – | – | – | – | 0.00 | 0.04 | – |
| 08/29 22:00 | – | 49 | – | 83 | – | – | – | – | 0.00 | 0.04 | – |
| 08/29 21:00 | – | 50 | – | 80 | – | – | – | – | 0.00 | 0.04 | – |
| 08/29 20:00 | – | 51 | – | 81 | – | – | – | – | 0.00 | 0.04 | – |
| 08/29 19:00 | – | 51 | – | 79 | – | – | – | – | 0.00 | 0.04 | – |
| 08/29 18:00 | – | 52 | – | 76 | – | – | – | – | 0.00 | 0.04 | – |
| 08/29 17:00 | – | 52 | – | 74 | – | – | – | – | 0.00 | 0.04 | – |
| 08/29 16:00 | – | 52 | – | 71 | – | – | – | – | 0.00 | 0.04 | – |
| 08/29 15:00 | – | 50 | – | 79 | – | – | – | – | 0.00 | 0.04 | – |
| 08/29 14:00 | – | 50 | – | 83 | – | – | – | – | 0.00 | 0.04 | – |
| 08/29 13:00 | – | 49 | – | 83 | – | – | – | – | 0.00 | 0.04 | – |
| 08/29 12:00 | – | 48 | – | 86 | – | – | – | – | 0.00 | 0.04 | – |
| 08/29 11:00 | – | 47 | – | 88 | – | – | – | – | 0.00 | 0.04 | – |
| 08/29 10:00 | – | 46 | – | 93 | – | – | – | – | 0.00 | 0.04 | – |
| 08/29 09:00 | – | 45 | – | 95 | – | – | – | – | 0.02 | 0.04 | – |
| 08/29 08:00 | – | 45 | – | 94 | – | – | – | – | 0.02 | 0.02 | – |
| 08/29 07:00 | – | 46 | – | 89 | – | – | – | – | 0.00 | 0.00 | – |
| 08/29 06:00 | – | 46 | – | 87 | – | – | – | – | 0.00 | 0.00 | – |
| 08/29 05:00 | – | 46 | – | 89 | – | – | – | – | 0.00 | 0.00 | – |
| 08/29 04:00 | – | 47 | – | 86 | – | – | – | – | 0.00 | 0.00 | – |
| 08/29 03:00 | – | 47 | – | 85 | – | – | – | – | 0.00 | 0.00 | – |
| 08/29 02:00 | – | 48 | – | 84 | – | – | – | – | 0.00 | 0.00 | – |
| 08/29 01:00 | – | 49 | – | 79 | – | – | – | – | 0.00 | 0.00 | – |
| 08/29 00:00 | – | 49 | – | 83 | – | – | – | – | 0.00 | 0.00 | – |
| 08/28 23:00 | – | 51 | – | 83 | – | – | – | – | 0.00 | 0.00 | – |
| 08/28 22:00 | – | 51 | – | 84 | – | – | – | – | 0.00 | 0.00 | – |
| 08/28 21:00 | – | 52 | – | 80 | – | – | – | – | 0.00 | 0.00 | – |
| 08/28 20:00 | – | 56 | – | 73 | – | – | – | – | 0.00 | 0.00 | – |
| 08/28 19:00 | – | 57 | – | 68 | – | – | – | – | 0.00 | 0.00 | – |
| 08/28 18:00 | – | 60 | – | 64 | – | – | – | – | 0.00 | 0.00 | – |
| 08/28 17:00 | – | 61 | – | 61 | – | – | – | – | 0.00 | 0.00 | – |
| 08/28 16:00 | – | 61 | – | 63 | – | – | – | – | 0.00 | 0.00 | – |
| 08/28 15:00 | – | 61 | – | 62 | – | – | – | – | 0.00 | 0.00 | – |
| 08/28 14:00 | – | 61 | – | 64 | – | – | – | – | 0.00 | 0.00 | – |
| 08/28 13:00 | – | 61 | – | 65 | – | – | – | – | 0.00 | 0.00 | – |
| 08/28 12:00 | – | 60 | – | 61 | – | – | – | – | 0.00 | 0.00 | – |
| 08/28 11:00 | – | 57 | – | 71 | – | – | – | – | 0.00 | 0.00 | – |
| 08/28 10:00 | – | 54 | – | 82 | – | – | – | – | 0.00 | 0.00 | – |
| 08/28 09:00 | – | 49 | – | 96 | – | – | – | – | 0.00 | 0.00 | – |
| 08/28 08:00 | – | 44 | – | 94 | – | – | – | – | 0.00 | 0.00 | – |
| 08/28 07:00 | – | 44 | – | 94 | – | – | – | – | 0.00 | 0.00 | – |
| 08/28 06:00 | – | 44 | – | 94 | – | – | – | – | 0.00 | 0.00 | – |
| 08/28 05:00 | – | 44 | – | 94 | – | – | – | – | 0.00 | 0.00 | – |
| 08/28 04:00 | – | 46 | – | 93 | – | – | – | – | 0.00 | 0.00 | – |
| 08/28 03:00 | – | 48 | – | 92 | – | – | – | – | 0.00 | 0.00 | – |
| 08/28 02:00 | – | 49 | – | 91 | – | – | – | – | 0.00 | 0.00 | – |
| 08/28 01:00 | 47 | 50 | 92 | 90 | 0 | 0 | 0 | 147 | 0.00 | 0.00 | 8.1 |
| 08/28 00:00 | 48 | 49 | 90 | 90 | 0 | 0 | 0 | 155 | 0.00 | 0.00 | 8.3 |
| 08/27 23:00 | 49 | 49 | 92 | 87 | 0 | 0 | 0 | 169 | 0.00 | 0.00 | 8.3 |
| 08/27 22:00 | 49 | 52 | 88 | 82 | 0 | 0 | 0 | 181 | 0.00 | 0.00 | 8.1 |
| 08/27 21:00 | 50 | 53 | 81 | 79 | 0 | 0 | 0 | 185 | 0.00 | 0.00 | 8.1 |
| 08/27 20:00 | 51 | 57 | 78 | 69 | 0 | 0 | 0 | 183 | 0.00 | 0.00 | 8.1 |
| 08/27 19:00 | 53 | 59 | 73 | 64 | 0 | 0 | 0 | 181 | 0.00 | 0.00 | 7.7 |

